Regional Weather Roundup
Issued by NWS

Home | Current Version | Previous Version | Graphics & Text | Print | Product List | Glossary On
Versions: 1 2 3 4 5 6 7 8 9 10 11 12 13 14 15 16 17 18 19 20 21 22 23 24 25 26 27 28 29 30 31 32 33 34 35 36 37 38 39 40 41 42 43 44 45 46 47 48 49 50
000
ASUS43 KOAX 230402
RWRNE

WEATHER ROUNDUP FOR NEBRASKA
NATIONAL WEATHER SERVICE OMAHA NE
1100 PM CDT TUE APR 22 2014

NOTES: SATELLITE DATA IS BEING USED TO AUGMENT CLOUD COVER ABOVE
       12000 FEET.
       "FAIR" INDICATES FEW OR NO CLOUDS BELOW 12,000 FEET WITH NO
       SIGNIFICANT WEATHER AND/OR OBSTRUCTIONS TO VISIBILITY.

  * THESE STATIONS DO NOT REPORT WEATHER SUCH AS RAIN...SNOW OR FOG.

NEZ001>004-019>022-054>056-230500-
NEBRASKA PANHANDLE

CITY           SKY/WX    TMP DP  RH WIND       PRES   REMARKS
SCOTTSBLUFF    CLOUDY    63  40  42 E10       29.61F
ALLIANCE       CLOUDY    62  44  51 SE21      29.65F
CHADRON        CLOUDY    63  48  58 SE21      29.58F
KIMBALL        MOCLDY    62  33  33 S8        29.67S
SIDNEY         PTCLDY    61  36  39 S17       29.66S
$$

NEZ057>060-069>072-079>082-230500-
SOUTHWEST NEBRASKA

CITY           SKY/WX    TMP DP  RH WIND       PRES   REMARKS
NORTH PLATTE   PTCLDY    65  30  27 SE23G37   29.73F
IMPERIAL       CLOUDY    67  46  47 S28G36    29.71R
LEXINGTON      CLEAR     63  32  32 SE22      29.79F
MCCOOK         PTCLDY    64  38  38 S18       29.76S
OGALLALA       PTCLDY    65  37  35 S24G36    29.67S
$$

NEZ005>010-023>029-035>040-094-230500-
NORTH CENTRAL NEBRASKA

CITY           SKY/WX    TMP DP  RH WIND       PRES   REMARKS
VALENTINE      CLOUDY    63  33  32 SE12      29.74S
AINSWORTH      CLOUDY    62  33  33 SE18G24   29.76S
BROKEN BOW     CLEAR     57  33  40 SE14      29.80F
O`NEILL        CLEAR     59  27  29 SE14G20   29.84S
ORD            CLEAR     59  31  34 SE16G24   29.83S
THEDFORD       PTCLDY    65  32  29 SE18G31   29.74F
$$

NEZ041-046>049-061>064-073>077-083>087-230500-
SOUTH CENTRAL NEBRASKA

CITY           SKY/WX    TMP DP  RH WIND       PRES   REMARKS
GRAND ISLAND   CLEAR     60  32  34 SE22G32   29.88S
HASTINGS       CLEAR     58  32  37 SE17G23   29.87S
HEBRON         CLEAR     59  31  34 SE13      29.92F
HOLDREGE       CLEAR     61  32  33 SE17G25   29.83S
KEARNEY *      PTCLDY    57  34  41 SE15      29.85S
YORK           MOCLDY    57  32  38 SE18      29.91F
$$

NEZ011>018-030>034-042>045-230500-
NORTHEAST NEBRASKA

CITY           SKY/WX    TMP DP  RH WIND       PRES   REMARKS
NORFOLK        CLEAR     56  33  42 SE14      29.90F
ALBION         CLEAR     58  29  33 SE15      29.89S
BLAIR          MOCLDY    59  32  36 E9        29.98R
COLUMBUS *     CLEAR     55  32  41 E10       29.92F
TEKAMAH        PTCLDY    60  33  36 SE13      29.97S
$$

NEZ050>053-065>068-078-088>093-230500-
SOUTHEAST NEBRASKA

CITY           SKY/WX    TMP DP  RH WIND       PRES   REMARKS
LINCOLN        PTCLDY    63  31  30 SE15      29.96S
OMAHA EPPLEY   MOCLDY    62  32  32 E12       29.98S
BEATRICE       CLEAR     59  32  35 SE10      29.96F
FALLS CITY     CLOUDY    56  36  47 SE6       29.99R
PLATTSMOUTH    CLOUDY    60  32  34 SE7       29.98F
$$

NEZ044-045-051>053-067-230500-
OMAHA AREA

CITY           SKY/WX    TMP DP  RH WIND       PRES   REMARKS
OMAHA EPPLEY   MOCLDY    62  32  32 E12       29.98S
BLAIR          MOCLDY    59  32  36 E9        29.98R
OFFUTT AFB     MOCLDY    59  35  39 SE9       29.98S
PLATTSMOUTH    CLOUDY    60  32  34 SE7       29.98F
$$



USA.gov is the U.S. government's official web portal to all federal, state and local government web resources and services.